Regional Weather Roundup
Issued by NWS

Home | Current Version | Previous Version | Text Only | Print | Product List | Glossary On
Versions: 1 2 3 4 5 6 7 8 9 10 11 12 13 14 15 16 17 18 19 20 21 22 23 24 25 26 27 28 29 30 31 32 33 34 35 36 37 38 39 40 41 42 43 44 45 46 47 48 49 50
000
ASUS43 KLSX 271807
RWRMO

WEATHER SUMMARY FOR MISSOURI
NATIONAL WEATHER SERVICE SPRINGFIELD MO
1200 PM CST THU NOV 27 2014

NOTE: "FAIR" INDICATES FEW OR NO CLOUDS BELOW 12,000 FEET WITH NO
       SIGNIFICANT WEATHER AND/OR OBSTRUCTIONS TO VISIBILITY.
       CURRENT SKY AND/OR WEATHER CONDITIONS ARE NOT AVAILABLE FOR
       CHILLICOTHE AND FARMINGTON.

MOZ001>031-035>038-043-044-053-054-271900-
...NORTHERN AND WESTERN MISSOURI...

CITY           SKY/WX    TMP DP  RH WIND       PRES   REMARKS
KANSAS CTY INT PTSUNNY   30  21  69 VRB6      30.50F WCI  24
6HR MIN TEMP:  24; 6HR MAX TEMP:  30;

KANSAS C DTWN  CLOUDY    31  20  63 CALM      30.51F
6HR MIN TEMP:  26; 6HR MAX TEMP:  32;

LEE`S SUMMIT   CLOUDY    31  21  66 CALM      30.50F
6HR MIN TEMP:  26; 6HR MAX TEMP:  31;

ST JOSEPH      PTSUNNY   26  16  65 N5        30.53F WCI  20
6HR MIN TEMP:  22; 6HR MAX TEMP:  26;

CHILLICOTHE      N/A     27  17  66 VRB3      30.53F
6HR MIN TEMP:  24; 6HR MAX TEMP:  28;

KIRKSVILLE     SUNNY     25  15  66 NW12      30.49F WCI  14
6HR MIN TEMP:  21; 6HR MAX TEMP:  25;


$$
MOZ066>068-077>081-088>096-101>105-271900-
...SOUTHWEST MISSOURI...

CITY           SKY/WX    TMP DP  RH WIND       PRES   REMARKS
SPRINGFIELD    SUNNY     37  24  59 CALM      30.48F
6HR MIN TEMP:  30; 6HR MAX TEMP:  37;

JOPLIN         SUNNY     37  23  56 VRB3      30.52F
6HR MIN TEMP:  22; 6HR MAX TEMP:  37;


$$
MOZ032>034-039>042-045>050-055>058-069>072-271900-
...CENTRAL MISSOURI...

CITY           SKY/WX    TMP DP  RH WIND       PRES   REMARKS
COLUMBIA       MOSUNNY   35  24  64 W10G18    30.49F WCI  27
6HR MIN TEMP:  28; 6HR MAX TEMP:  35;

JEFFERSON CITY MOSUNNY   35  22  58 NW9       30.51F WCI  28
6HR MIN TEMP:  30; 6HR MAX TEMP:  34;

ROLLA          PTSUNNY   30  23  75 MISG      30.46F
6HR MIN TEMP:  29; 6HR MAX TEMP:  31;

SEDALIA        CLOUDY    31  22  69 CALM      30.51F
6HR MIN TEMP:  27; 6HR MAX TEMP:  31;

WHITEMAN AFB   MOSUNNY   30  21  68 W5        30.50F WCI  25
WARRENSBURG    CLOUDY    30  21  69 W3        30.51F
OSAGE BEACH    CLOUDY    32  25  74 W3        30.50F

$$
MOZ051-052-059>065-271900-
...EAST CENTRAL MISSOURI...

CITY           SKY/WX    TMP DP  RH WIND       PRES   REMARKS
ST LOUIS INTL  PTSUNNY   34  24  67 W15G21    30.47F WCI  24
6HR MIN TEMP:  30; 6HR MAX TEMP:  34;

SPIRIT OF STL  PTSUNNY   34  23  64 W14       30.47F WCI  25
6HR MIN TEMP:  30; 6HR MAX TEMP:  34;

ST CHARLES     PTSUNNY   32  21  64 W15       30.47F WCI  22
6HR MIN TEMP:  29; 6HR MAX TEMP:  32;


$$
MOZ072>076-082>087-097>100-106>115-271900-
...SOUTH CENTRAL AND SOUTHEAST MISSOURI...

CITY           SKY/WX    TMP DP  RH WIND       PRES   REMARKS
CAPE GIRARDEAU CLOUDY    33  28  81 N9        30.49F WCI  25
6HR MIN TEMP:  32; 6HR MAX TEMP:  34;

FARMINGTON     PTSUNNY   34  25  69 W12       30.46F WCI  25
6HR MIN TEMP:  30; 6HR MAX TEMP:  34;

POPLAR BLUFF   CLOUDY    39  26  59 N9        30.48F
6HR MIN TEMP:  35; 6HR MAX TEMP:  39;

WEST PLAINS    SUNNY     39  26  59 VRB6      30.47F
6HR MIN TEMP:  31; 6HR MAX TEMP:  39;


$$


USA.gov is the U.S. government's official web portal to all federal, state and local government web resources and services.